RH
80 81 80 79 77 77 80 83 79 78 76 78 86 90 100 106 106 104 101 100 102 104 96 92 87 86 89 90 96 78 58 63 67 62 62 61 64 74 77 86 98 103 98 87 76 63 69 69 48 41 44 44 46 63 85 84 64 51 49 54 56 53 49 46 46 46 41 33 28 22 21 22 21 20 20 19 18 18 19 19 20 22 24 25 27 29 30 32 35 35 32 29 27 26 24 22 20
82 80 79 78 77 75 74 79 82 84 83 78 83 88 99 109 107 103 102 101 102 100 90 91 87 81 81 81 93 94 80 75 69 59 61 63 63 76 88 98 101 99 92 76 65 66 73 63 45 50 59 60 75 94 90 66 52 52 54 60 58 50 47 45 45 43 37 31 26 22 22 22 21 21 20 19 18 18 18 19 20 21 24 26 28 30 32 32 33 33 32 30 28 26 24 22 20
79 77 75 75 75 75 70 69 74 82 85 80 83 87 97 107 108 105 106 106 100 87 78 85 89 87 87 78 78 92 97 90 78 68 77 80 75 89 98 103 105 102 96 81 75 76 68 57 49 60 82 90 94 88 66 54 54 57 61 62 53 48 48 44 42 39 34 30 24 22 23 22 21 21 19 19 18 18 18 18 19 21 23 25 28 30 31 31 30 31 30 30 27 26 24 22 21
79 76 73 71 70 70 67 64 64 71 76 81 88 89 90 94 99 102 102 103 95 80 71 72 76 86 99 98 86 88 101 102 90 86 99 100 90 93 93 92 98 101 98 91 90 84 66 61 59 60 80 85 73 61 51 54 59 65 67 56 48 47 46 43 40 35 32 27 23 23 23 22 21 20 19 19 18 18 18 18 18 20 22 23 26 28 29 28 28 29 28 27 25 24 22 21 20
83 80 77 74 70 65 63 60 60 62 66 81 94 97 95 91 92 93 92 95 88 79 71 68 71 74 85 102 104 96 97 104 102 98 100 105 102 90 76 74 83 90 93 93 89 78 67 66 67 61 61 57 52 50 51 59 68 72 61 48 47 45 42 42 37 32 30 26 23 23 22 22 21 21 19 18 18 18 18 18 18 18 20 21 23 25 26 26 26 26 25 23 21 20 19 18 17
83 84 82 80 75 68 62 58 60 60 65 77 86 94 99 97 97 95 95 96 83 74 71 69 73 71 69 80 99 106 102 102 105 101 94 97 98 81 63 57 60 66 71 74 70 63 62 64 67 65 59 52 48 49 58 71 78 67 51 46 43 41 42 40 33 30 29 25 24 23 22 22 21 21 20 19 18 18 18 18 18 18 18 19 21 23 24 23 23 22 21 20 19 18 17 16 15
73 77 80 81 79 74 67 65 65 65 70 77 79 86 94 94 97 96 98 99 81 71 71 69 70 71 68 65 73 95 107 107 104 103 102 96 84 70 58 50 49 51 51 52 50 49 54 60 65 65 60 53 49 58 72 77 71 55 44 42 40 42 41 34 30 29 27 25 25 23 23 22 22 21 20 19 19 18 19 19 19 19 19 19 20 21 22 21 20 19 18 17 17 16 16 16 15
61 64 68 72 74 74 71 71 72 72 76 80 80 83 87 88 91 91 93 95 82 74 73 71 70 67 67 66 65 77 97 109 110 106 105 99 83 72 66 63 65 63 56 48 45 47 52 58 59 57 53 49 57 73 74 64 55 45 39 40 41 41 34 29 29 28 27 26 25 24 23 23 22 22 21 20 20 19 19 19 19 19 19 19 20 20 20 19 19 17 17 17 16 16 16 16 16
52 52 54 58 62 67 68 70 72 72 74 75 78 79 81 80 81 82 81 84 82 78 74 69 68 65 64 70 72 74 86 101 106 99 100 98 83 76 75 78 85 81 73 65 61 59 57 57 54 51 48 54 72 75 59 47 43 38 37 40 40 35 29 28 28 29 28 26 25 24 23 23 23 22 21 21 20 20 20 20 20 20 20 20 20 19 19 18 18 17 17 17 17 17 17 17 17
52 49 47 48 51 55 59 61 62 63 62 63 69 72 72 68 68 70 70 74 77 75 71 66 63 65 65 70 74 74 82 96 102 92 95 99 85 82 85 86 93 96 93 86 76 65 58 56 56 54 55 71 80 62 43 39 37 36 39 39 35 30 28 29 29 29 28 27 26 24 24 24 24 23 22 22 22 21 21 20 20 20 20 20 20 19 19 18 18 17 17 17 18 19 19 19 19
59 55 50 47 46 46 47 48 49 50 51 53 57 58 58 56 56 64 67 67 73 71 67 65 63 65 65 67 70 71 76 90 104 101 95 92 80 85 98 99 100 104 105 94 76 61 54 57 63 68 78 89 72 44 37 36 36 38 39 37 32 29 29 30 30 29 29 29 27 24 24 25 25 25 23 23 22 22 22 21 21 21 21 20 19 18 18 17 18 17 18 18 20 20 21 21 21
60 59 57 53 49 46 43 43 43 43 44 46 46 44 45 46 47 54 56 59 68 66 62 64 64 66 65 65 65 67 75 84 99 106 103 97 83 84 96 98 98 100 98 85 70 64 65 70 75 83 92 81 50 34 36 36 38 40 39 35 31 29 30 32 30 28 30 31 30 26 24 26 26 25 25 24 23 23 22 22 22 21 20 19 18 18 18 18 18 18 19 20 21 21 22 23 23
61 60 58 57 55 51 47 44 42 42 42 41 41 41 41 41 41 43 43 51 60 57 57 61 63 65 65 65 63 65 76 82 87 93 98 103 99 97 96 95 97 95 87 80 78 79 78 73 69 72 70 51 34 35 37 38 41 40 37 33 30 30 31 32 29 29 32 33 32 28 25 26 26 26 25 25 24 23 23 22 22 21 20 19 18 19 19 19 19 20 21 21 21 21 22 21 21
65 63 60 57 56 55 52 48 44 43 43 44 44 43 41 40 41 40 41 47 53 52 53 54 57 60 59 59 60 66 74 75 76 80 84 91 96 99 99 98 98 91 83 77 73 67 57 50 47 46 41 33 34 38 39 42 42 39 36 31 30 30 32 33 30 31 33 34 33 28 26 26 26 27 25 25 25 24 23 22 22 20 19 19 20 20 20 20 21 21 21 20 20 19 20 20 19
62 62 60 58 58 57 54 51 47 45 45 48 48 45 42 41 42 40 41 44 47 49 49 49 50 52 53 53 55 63 67 67 69 70 72 74 76 80 83 82 76 68 60 52 46 41 38 38 37 35 33 34 39 41 42 43 40 38 34 29 28 29 34 34 31 33 34 34 31 28 27 26 26 26 26 25 24 24 23 22 21 20 20 20 21 22 22 22 21 19 18 18 18 18 19 19 20
52 54 53 54 59 61 60 56 50 46 46 48 48 46 44 43 43 41 40 41 42 44 45 46 47 47 46 46 47 52 54 55 56 57 59 60 61 62 60 54 47 41 37 35 35 36 36 36 34 33 36 40 43 43 43 42 39 37 31 29 28 31 36 36 35 38 38 35 30 29 28 26 26 25 25 25 24 24 22 22 21 20 21 23 25 24 22 20 17 16 16 17 17 19 20 20 21
36 42 44 47 56 64 68 68 62 54 49 46 47 47 46 45 44 43 41 41 40 39 42 43 45 45 43 41 41 43 44 43 44 46 48 48 47 45 40 36 34 34 35 36 35 35 35 34 36 39 43 45 45 44 42 41 39 34 30 30 30 34 39 40 42 44 45 40 32 31 30 26 26 25 25 25 24 23 22 22 21 21 25 27 25 20 17 16 15 16 17 18 19 19 20 21 21
22 28 34 40 48 59 68 73 72 68 61 53 51 49 47 47 46 45 44 43 42 40 41 42 44 43 42 40 39 41 41 41 40 40 40 39 37 35 35 35 35 36 36 35 35 35 36 38 42 44 46 47 45 44 43 40 37 32 31 31 32 40 44 44 42 42 48 44 33 32 32 28 27 26 24 24 23 22 22 20 22 27 29 24 19 15 15 16 17 19 20 22 23 22 21 21 21
15 17 21 28 35 44 55 63 69 72 73 68 62 55 49 48 48 48 47 45 44 44 43 42 42 42 41 39 39 41 41 41 39 38 38 37 37 36 36 36 36 35 35 36 37 39 42 45 47 48 48 47 45 44 42 38 34 32 32 32 42 51 48 51 50 40 42 41 33 33 34 30 28 26 23 22 22 21 21 23 30 31 24 18 15 16 16 18 20 22 25 27 27 23 21 21 22
14 14 15 17 21 27 37 47 56 64 70 72 71 66 58 51 49 49 48 47 46 45 45 44 43 43 42 40 40 41 41 40 39 38 38 38 37 35 35 35 34 35 36 39 41 45 47 48 49 49 47 44 44 43 41 42 42 36 31 38 64 72 62 74 71 44 35 36 32 34 37 33 29 26 22 22 21 22 27 33 34 25 18 17 16 17 19 22 24 26 27 29 27 22 22 24 25
14 14 15 16 16 17 22 30 39 49 58 64 67 68 67 61 55 51 50 49 47 45 44 45 44 44 43 41 41 40 40 39 38 38 37 38 36 34 35 34 35 37 40 45 48 50 49 50 50 46 46 45 44 42 48 67 73 61 47 58 89 92 84 94 77 42 34 35 32 34 40 36 29 26 21 20 25 31 38 36 27 20 17 18 17 20 23 25 26 27 28 28 25 23 25 27 25
15 15 15 16 15 14 16 19 23 32 42 50 56 60 64 64 61 57 53 51 49 47 46 45 45 45 43 40 40 39 39 39 38 37 36 36 35 36 38 40 43 45 48 51 52 52 51 50 47 45 45 43 50 61 75 93 97 91 82 86 102 99 97 100 72 44 45 44 38 37 41 38 29 24 20 25 38 43 39 30 23 21 20 19 21 24 25 27 28 29 28 27 25 25 28 26 25
16 16 16 15 15 15 16 16 17 20 25 34 42 48 54 58 62 62 58 54 50 48 47 46 45 44 42 39 38 38 38 38 37 36 35 36 37 41 44 48 51 51 55 55 54 54 50 48 44 46 44 47 76 94 95 101 101 102 100 99 103 99 101 102 72 50 59 59 49 43 41 37 28 21 24 39 51 45 34 31 31 31 28 26 26 28 29 30 30 30 29 28 28 28 28 27 27
18 17 17 16 16 16 17 16 16 16 16 20 26 34 42 47 54 58 61 59 55 52 49 47 45 43 41 39 40 40 40 39 37 37 37 40 43 47 50 53 55 56 57 54 54 51 46 46 42 44 42 50 89 105 99 102 103 103 102 101 104 100 101 100 76 63 75 72 59 52 43 35 27 23 36 54 58 44 37 40 43 43 39 35 32 31 33 33 32 32 31 31 31 30 29 30 29
19 19 18 17 17 17 18 17 16 16 15 15 17 21 27 35 41 47 54 58 58 57 55 51 47 45 42 41 42 43 43 41 39 39 41 46 49 52 53 56 57 57 56 53 52 47 45 46 40 52 61 63 90 107 103 100 102 104 102 102 101 100 103 98 84 82 91 82 69 62 49 36 26 28 47 64 63 50 46 53 55 52 47 41 37 36 37 37 35 34 34 34 33 32 32 32 28
23 22 20 18 19 18 18 17 16 16 15 15 14 15 17 21 28 34 42 48 54 59 61 59 54 50 46 44 45 45 44 41 41 43 45 49 51 55 56 57 59 56 55 52 49 45 45 43 45 73 86 81 96 103 97 99 106 96 84 99 105 99 102 97 94 99 97 88 78 66 49 34 25 32 51 68 70 57 56 62 61 58 52 46 41 40 41 41 39 36 36 36 34 34 34 33 28
29 28 26 21 20 19 18 18 17 17 16 15 14 14 14 14 17 22 28 35 42 49 56 60 61 59 52 48 47 46 45 43 44 47 48 52 53 56 58 58 58 55 53 51 48 47 45 43 56 93 92 65 67 69 66 78 86 63 46 77 100 99 103 99 101 106 94 80 68 55 41 29 27 33 46 69 75 63 65 69 65 63 56 52 48 45 47 48 44 40 38 38 36 36 36 33 29
34 34 32 26 22 20 18 18 19 18 17 16 15 14 14 13 14 15 18 22 28 34 42 50 56 60 58 54 52 50 49 47 49 50 51 54 55 57 58 58 56 53 53 50 48 45 45 43 52 93 95 53 36 35 41 56 64 62 57 68 83 95 106 101 103 104 84 63 48 39 33 26 28 30 40 70 78 66 69 69 66 63 55 54 53 47 50 56 53 45 41 40 38 37 36 32 28
35 35 36 32 26 22 21 20 20 19 18 17 16 15 14 14 14 15 16 15 18 23 27 34 42 49 55 57 57 56 55 53 54 53 53 54 55 55 55 54 53 51 50 49 49 46 47 45 41 68 79 50 30 30 53 80 87 92 95 89 88 96 103 100 104 102 77 53 37 31 30 25 26 32 48 76 82 71 68 66 62 56 49 51 52 48 47 55 59 52 46 42 37 35 33 30 28
39 37 39 38 31 27 25 22 20 18 18 18 16 15 15 15 15 16 16 14 14 16 19 23 28 35 43 49 54 56 58 58 57 56 55 54 53 54 55 55 53 53 52 48 46 44 42 42 37 44 49 35 27 46 81 102 103 101 99 98 98 97 100 102 104 96 74 51 36 29 27 23 24 33 55 83 90 83 75 68 62 52 45 44 46 49 45 49 57 54 49 43 36 32 31 30 30
42 36 35 37 33 33 32 27 23 20 19 19 16 16 18 17 16 17 16 15 14 15 16 17 19 24 30 36 42 48 52 55 56 57 55 55 57 56 54 55 53 50 48 44 41 42 40 37 35 31 33 27 24 62 102 102 100 105 103 101 96 94 100 104 102 92 72 51 40 33 23 22 23 27 54 87 93 88 84 78 69 56 48 40 37 47 45 45 51 50 47 43 35 31 31 31 33
43 35 33 36 35 39 39 31 27 23 20 19 16 17 21 19 18 19 19 16 15 16 16 15 15 16 20 24 30 35 41 45 49 52 51 56 63 60 59 67 64 51 43 39 32 31 30 24 26 23 18 18 18 50 91 97 97 99 102 104 97 96 101 103 102 89 68 54 48 40 23 21 24 26 52 83 86 78 79 81 74 60 50 36 29 42 46 43 50 47 43 43 37 33 33 33 36
45 41 38 39 40 45 45 38 35 31 23 20 17 18 22 22 20 20 20 18 17 18 16 14 13 13 15 16 20 24 28 33 36 41 42 46 55 58 71 90 87 77 76 72 54 44 45 40 45 45 36 45 56 67 85 95 96 92 99 103 98 101 102 102 100 83 66 57 50 39 25 20 21 31 58 81 87 83 76 72 67 54 43 33 26 39 45 42 52 50 42 42 39 35 34 35 40
44 43 42 45 52 58 60 55 48 43 34 24 21 20 23 24 23 21 20 19 19 20 17 14 13 12 13 12 14 16 19 23 25 29 32 35 44 49 66 88 95 95 94 94 91 83 85 86 85 84 81 90 97 98 100 100 99 96 101 101 98 101 102 103 98 80 71 62 49 35 28 25 22 35 61 72 77 82 71 58 54 44 34 30 28 37 43 41 53 58 49 45 40 36 37 39 43
56 59 66 77 87 87 88 81 65 61 54 37 26 23 23 26 25 21 20 20 19 19 17 15 14 13 13 12 12 13 14 17 17 21 23 26 36 40 48 65 81 96 94 91 98 94 94 103 101 98 99 101 100 101 102 101 101 100 102 101 99 101 101 103 97 88 86 79 64 47 41 42 36 42 57 58 55 58 53 47 47 41 29 26 28 36 42 42 52 62 59 53 45 39 41 43 47
84 83 86 94 102 102 104 101 80 68 63 47 33 26 24 26 25 21 19 18 18 18 18 16 15 13 13 13 13 14 14 15 15 17 17 19 27 31 46 69 77 92 104 102 100 93 91 100 104 102 101 101 100 102 102 100 101 100 101 101 98 100 101 102 99 94 96 98 85 66 59 57 47 45 51 53 49 45 44 43 43 41 31 23 26 34 42 44 52 64 67 65 56 45 45 48 51
105 98 90 84 86 92 100 103 86 65 57 51 40 29 25 24 22 20 18 17 16 17 17 17 16 15 14 13 13 14 15 16 15 15 14 15 19 21 40 77 93 95 104 105 102 98 91 91 100 103 102 102 100 100 102 102 101 100 101 101 99 99 100 103 101 91 94 105 96 78 71 62 50 45 43 43 44 41 40 39 38 39 33 25 25 30 38 45 53 66 73 75 69 56 51 54 57
109 103 99 88 82 91 101 105 95 74 58 55 48 36 29 26 23 20 17 16 16 16 17 17 18 17 16 15 14 14 14 16 16 14 13 11 15 17 21 53 91 100 101 103 100 102 100 93 96 101 100 102 101 99 102 103 101 101 102 101 99 97 99 104 103 92 87 97 100 93 86 75 61 51 43 39 36 35 36 36 34 34 34 31 29 29 34 41 52 68 78 81 80 71 61 60 63
105 97 96 91 85 96 107 107 103 88 66 56 53 46 39 34 28 22 18 17 16 16 16 16 17 18 18 18 16 16 15 16 17 14 14 11 11 15 14 44 95 106 99 102 99 101 106 100 97 100 99 97 99 99 101 102 101 101 102 101 100 98 99 101 102 100 87 83 93 99 98 94 84 70 62 57 48 40 38 37 33 31 32 33 33 32 34 40 51 66 78 80 83 82 72 66 67
95 85 84 89 89 96 106 106 105 99 80 63 54 50 47 40 32 26 21 19 17 16 16 15 17 19 21 21 19 19 16 15 16 14 14 13 11 12 10 44 102 108 82 82 94 101 105 104 103 103 99 94 96 98 98 101 101 101 101 101 101 100 99 98 101 101 85 73 83 96 102 102 99 89 77 72 63 51 44 39 36 33 33 33 35 37 39 45 53 66 77 76 78 88 84 73 71
95 86 85 95 97 99 105 106 107 103 89 73 58 47 48 48 42 35 28 22 18 16 16 16 17 20 21 23 23 22 19 16 16 14 14 13 13 14 9 25 72 94 82 79 94 104 102 100 103 103 101 97 98 98 96 99 101 101 101 100 101 101 100 100 101 95 82 77 84 92 100 103 104 101 86 74 67 63 56 48 43 41 40 40 42 44 46 51 57 67 77 72 69 85 93 82 75
105 99 98 104 105 106 108 107 106 98 87 83 68 47 49 58 54 45 36 27 21 17 18 18 19 21 22 26 27 24 22 19 16 14 15 16 14 15 13 13 29 56 84 99 99 101 104 100 99 102 103 101 101 101 97 97 100 101 100 99 100 101 101 101 102 97 91 94 92 88 98 106 105 100 87 74 69 71 69 60 55 52 51 53 54 56 54 54 61 68 71 66 59 75 93 89 79
107 107 107 108 108 106 107 106 104 96 91 95 80 50 47 58 57 51 42 29 22 19 18 19 20 23 24 28 31 26 22 21 19 15 13 16 17 15 16 16 15 23 56 93 103 100 103 102 99 101 102 100 100 102 100 97 99 100 99 99 100 101 101 101 102 98 95 101 98 89 98 108 103 91 81 75 70 71 71 69 70 70 69 69 66 64 58 57 66 67 63 56 51 68 91 93 84
105 109 108 108 107 103 105 105 102 101 101 100 82 54 47 55 58 56 45 30 24 22 20 21 22 24 25 29 33 29 25 22 20 17 13 14 16 16 16 14 18 25 35 67 97 103 102 102 101 101 101 101 101 101 102 100 99 100 99 99 99 100 101 101 99 95 95 100 101 97 99 104 104 91 79 74 70 67 68 67 70 76 78 76 73 68 63 64 68 64 56 48 48 70 93 95 88
106 110 109 108 106 103 104 101 98 102 100 90 76 57 47 53 58 56 45 34 30 28 24 24 24 25 26 31 35 32 27 25 22 18 14 15 15 16 18 13 18 34 42 64 93 102 102 104 104 101 100 101 102 101 102 102 100 99 99 98 99 100 101 101 98 96 97 101 102 101 99 102 105 95 79 71 65 61 62 62 64 68 70 70 71 72 71 71 70 62 53 44 49 75 94 93 85
107 113 112 109 105 105 102 92 90 90 82 74 70 59 48 52 59 54 46 41 41 36 29 27 29 29 30 33 37 35 30 26 24 20 15 15 15 15 17 16 16 28 49 79 102 105 104 106 104 102 100 99 102 102 101 101 100 98 99 100 100 101 101 100 100 100 99 102 103 100 99 102 102 92 77 67 60 56 57 59 60 61 61 59 60 65 69 66 63 57 48 42 52 76 91 88 77
108 110 107 102 101 104 98 88 85 76 67 71 70 59 48 49 57 55 49 50 51 44 34 29 30 29 30 34 36 36 33 29 25 22 18 15 15 16 15 16 17 20 36 67 90 97 101 106 105 100 99 99 101 103 102 100 100 99 100 101 100 101 102 100 101 100 100 102 102 100 102 102 98 92 82 71 64 60 57 56 56 57 56 53 52 54 55 52 51 50 43 41 54 72 81 80 77
108 108 102 96 94 95 89 82 74 62 67 79 73 60 48 47 59 62 57 57 57 51 40 31 30 29 29 34 38 37 32 31 28 22 19 16 14 16 16 15 17 18 24 39 56 64 70 87 103 101 98 101 101 102 103 101 101 101 99 100 100 100 102 101 100 100 100 101 102 103 104 98 94 96 92 79 69 64 61 58 56 56 54 52 51 50 48 47 47 45 43 46 55 66 73 79 83
101 102 98 93 88 83 76 72 68 65 75 81 71 59 47 50 68 71 64 64 62 57 47 36 35 34 31 34 40 39 32 30 29 23 20 18 15 16 17 17 18 18 19 22 28 31 30 52 91 103 98 101 101 101 103 101 101 101 98 98 101 101 102 101 100 100 100 100 102 106 102 90 85 88 87 79 70 64 62 60 59 57 57 55 53 51 49 48 46 43 46 51 55 62 72 81 84
96 95 93 90 84 76 70 69 71 73 82 89 80 64 51 57 75 78 71 70 66 60 52 42 38 35 31 34 38 37 33 30 29 26 22 19 17 16 16 18 19 19 20 19 20 22 18 30 75 104 102 101 102 100 102 102 101 100 97 97 100 101 101 100 100 100 100 100 101 105 99 84 76 78 80 77 69 62 60 60 60 60 62 60 56 53 51 49 46 46 47 49 54 63 74 78 80
104 103 101 94 86 80 75 76 80 79 88 103 91 66 57 66 83 86 74 68 66 63 60 50 40 35 32 32 35 36 35 32 31 30 25 20 18 17 18 19 20 19 20 22 20 22 20 23 60 100 106 101 101 100 102 102 100 98 98 99 101 101 101 101 100 100 100 100 101 103 100 89 82 85 86 82 74 67 65 64 65 68 69 65 59 55 53 52 50 50 51 52 60 70 75 78 84
107 106 104 98 92 87 79 77 84 88 100 110 92 69 67 77 93 93 73 66 68 68 69 58 40 36 33 32 34 35 35 34 35 33 27 22 19 17 18 19 21 21 20 23 22 22 24 23 51 96 108 101 101 102 101 101 99 99 99 100 101 101 101 100 100 100 101 101 101 101 101 97 95 94 92 89 84 79 76 74 72 73 72 66 61 58 57 56 54 55 58 61 70 78 82 87 95
104 97 93 98 103 103 96 88 85 89 101 107 91 74 72 78 95 95 72 65 69 71 75 63 43 36 33 32 33 33 36 36 38 36 28 25 21 18 19 19 22 23 20 24 22 22 25 25 52 97 109 101 101 102 101 100 100 100 101 102 101 100 101 100 100 101 101 101 101 101 100 98 96 91 87 86 84 80 77 74 72 71 69 66 64 63 61 60 59 59 62 71 84 91 94 98 101
103 98 96 103 107 103 100 95 88 88 96 99 87 72 67 75 94 95 73 64 68 72 73 61 44 37 33 35 34 34 39 39 39 37 30 26 22 19 19 20 24 24 22 25 23 23 25 27 62 104 107 100 102 102 102 101 100 102 101 101 100 99 101 99 98 99 100 100 101 101 100 98 97 93 86 82 79 77 73 70 70 70 70 70 68 67 65 63 62 63 71 85 96 100 100 101 101
102 103 104 107 104 94 87 83 80 86 96 98 87 71 63 74 95 95 75 66 69 71 69 59 48 38 34 38 37 36 42 45 45 41 32 28 24 20 19 19 26 27 24 26 24 25 23 27 69 106 103 99 101 100 102 101 100 102 100 100 99 99 101 98 95 96 98 100 100 102 102 101 103 100 93 87 82 77 72 68 70 72 73 73 71 69 66 63 64 74 87 96 100 100 101 101 101
100 101 105 107 104 100 97 90 85 92 101 103 96 84 73 79 99 102 86 79 80 75 70 64 55 42 35 39 41 43 51 52 47 41 34 29 24 22 20 19 26 29 28 28 25 27 23 28 72 107 102 100 101 98 103 103 101 101 99 100 100 99 101 99 97 97 98 100 101 103 105 103 102 97 90 87 81 73 69 67 70 73 74 75 71 68 68 72 80 91 99 101 100 101 101 102 102
100 100 102 102 98 95 95 90 89 97 104 106 103 98 90 90 103 107 100 97 94 85 76 68 62 50 37 37 42 49 59 58 48 40 35 31 25 23 21 19 25 30 31 30 26 28 24 27 71 105 101 99 101 98 102 102 101 102 99 101 101 100 102 100 99 100 101 103 104 104 105 103 99 95 90 84 76 72 73 75 77 78 80 80 79 81 85 91 96 100 101 101 100 100 101 101 99
103 104 103 103 102 99 91 82 81 87 93 98 100 101 99 99 105 107 105 105 101 92 79 68 66 58 42 37 41 49 59 59 51 44 38 32 26 23 22 20 24 29 32 31 26 29 27 28 67 104 102 98 101 99 101 100 99 100 99 100 101 100 102 100 99 101 101 102 101 98 98 95 93 95 94 89 86 89 92 93 92 93 94 94 94 96 98 99 101 102 101 101 103 105 102 95 92
Wind_Speed
86 85 85 84 83 82 81 79 78 75 72 69 67 66 69 71 71 72 72 73 75 73 65 60 59 55 48 42 42 45 47 45 45 46 46 45 44 42 41 42 44 45 45 44 43 41 42 45 46 44 42 41 38 38 44 50 51 51 52 54 56 55 53 51 49 48 48 46 42 40 40 40 39 38 36 35 35 34 33 32 31 31 30 29 28 28 27 27 27 27 27 27 27 27 28 28 28
84 84 83 83 82 81 80 79 77 74 72 69 68 69 73 75 74 76 78 79 79 76 68 62 61 58 54 50 47 46 47 46 46 48 47 46 44 43 42 43 44 43 42 42 42 42 45 46 46 44 42 39 38 43 50 52 51 51 53 55 54 53 50 48 47 47 46 43 40 39 39 39 38 36 35 34 34 33 33 32 31 30 29 29 28 28 28 27 27 27 28 28 28 29 29 29 30
83 82 82 82 81 81 79 78 75 72 72 68 67 70 74 77 77 79 83 84 82 78 71 66 62 58 56 56 53 49 47 45 46 47 46 45 43 43 43 43 43 42 43 43 43 45 46 46 46 44 42 41 44 51 53 51 51 52 53 53 52 51 49 47 46 46 44 40 38 38 38 37 36 35 34 33 33 33 32 31 31 30 29 29 28 28 28 28 28 28 28 29 29 30 30 31 31
81 81 80 80 80 80 79 76 73 71 69 67 66 69 73 76 79 82 86 88 82 77 72 68 65 59 56 55 54 51 48 45 46 46 44 44 44 44 44 44 45 45 46 46 46 47 48 47 46 45 45 46 50 52 51 51 52 52 52 51 51 49 47 45 44 44 41 38 37 37 37 36 35 34 33 33 33 32 32 31 30 30 30 29 29 28 28 28 29 29 29 29 30 30 31 32 32
78 78 78 79 79 79 77 74 71 68 66 66 67 68 72 75 78 81 85 88 80 75 71 68 67 63 58 56 54 53 50 48 48 47 46 44 45 47 47 46 47 47 47 47 48 48 48 47 46 46 47 49 50 50 50 51 52 51 50 50 50 48 45 44 43 42 39 37 36 36 35 35 34 33 33 32 32 32 32 31 30 30 30 30 29 29 29 30 30 30 30 31 31 32 32 32 33
75 75 76 77 77 76 75 71 67 65 64 67 68 69 73 75 78 79 83 85 78 73 70 67 68 66 62 58 56 55 53 52 52 51 50 48 49 51 50 49 48 46 47 47 48 48 47 48 48 49 49 49 49 50 51 52 51 50 49 49 48 45 43 42 42 40 36 35 35 35 35 34 34 33 32 32 32 32 32 31 31 31 31 31 31 31 31 31 31 32 32 33 33 33 34 34 34
73 73 74 74 74 73 71 67 64 63 64 67 67 69 74 76 78 79 82 83 77 73 70 67 67 66 63 59 57 57 56 55 54 53 53 53 54 56 55 53 50 48 48 49 48 48 48 49 49 50 50 50 50 51 52 52 50 49 48 47 45 42 42 42 40 37 34 34 35 34 34 33 33 33 32 32 32 32 32 31 31 31 31 31 32 32 32 33 33 33 34 34 34 35 35 35 35
72 72 72 72 71 70 67 63 61 61 62 65 66 69 74 76 78 79 81 81 76 73 70 68 66 64 62 59 58 59 60 58 54 54 56 57 57 57 57 55 53 52 52 52 50 49 50 51 51 51 51 50 51 53 52 50 49 47 46 44 42 41 41 41 39 35 33 34 34 34 33 33 32 32 32 32 32 32 32 32 32 32 32 32 33 33 33 34 35 35 35 36 36 36 36 36 36
71 71 70 70 69 66 63 60 59 60 61 64 66 68 73 76 77 78 79 79 75 72 70 67 65 63 60 59 59 60 62 60 57 56 58 59 59 58 57 56 55 55 55 54 53 53 53 53 52 52 52 51 52 53 51 48 46 44 43 41 41 41 41 40 36 33 33 34 34 33 33 33 32 32 32 32 32 33 32 32 33 33 33 34 34 35 35 36 36 37 37 37 37 37 37 38 38
70 69 69 69 67 64 60 58 59 60 62 65 65 66 71 74 76 76 76 77 73 70 69 65 63 61 59 60 60 60 61 61 60 59 59 60 61 60 58 57 56 55 55 55 55 56 56 55 54 53 52 52 53 51 47 44 43 41 40 41 41 40 40 38 34 32 33 33 33 33 33 32 32 32 32 32 33 33 33 33 33 34 34 35 36 36 37 37 38 38 38 38 38 38 39 39 39
69 68 68 67 64 61 59 58 60 61 63 63 62 65 69 72 74 72 74 75 71 68 66 62 60 59 59 59 59 58 59 62 62 62 62 62 61 60 58 58 57 56 55 57 58 59 58 57 56 55 54 54 52 47 43 41 40 40 40 40 40 40 39 35 32 32 33 33 33 34 33 32 31 32 32 32 33 33 33 34 34 35 36 36 37 38 38 38 39 39 39 39 39 39 40 40 40
69 68 68 66 62 60 59 59 59 61 62 61 61 67 69 70 70 70 72 72 70 66 61 59 57 57 57 57 57 56 58 61 62 63 64 64 62 61 60 59 57 57 57 59 61 61 60 59 58 56 55 52 47 42 40 40 39 39 40 40 40 39 36 33 31 32 33 33 33 34 33 32 31 31 32 32 33 33 34 35 35 36 37 37 38 39 39 39 39 40 40 40 40 40 40 40 40
70 70 69 65 62 60 59 58 59 60 61 61 63 68 68 66 67 69 71 68 67 62 56 57 56 56 55 54 53 53 59 61 61 63 63 63 62 63 63 61 59 59 59 60 61 61 61 59 56 53 50 46 41 39 39 39 39 39 40 39 39 37 35 32 31 32 33 33 33 34 33 32 31 31 32 32 33 34 34 35 36 37 37 38 39 39 40 40 40 40 40 40 40 40 40 40 39
72 72 69 65 61 60 59 56 58 59 60 64 67 69 67 66 67 68 68 64 64 60 55 56 53 53 52 51 50 53 59 59 60 62 60 60 60 62 63 62 60 59 58 58 58 57 56 53 49 45 42 39 38 39 38 38 38 39 39 38 38 36 34 32 32 32 33 33 34 34 33 32 31 31 32 32 33 34 34 35 36 37 38 39 39 40 40 40 40 40 39 39 39 39 38 37 37
75 74 70 65 62 60 58 56 59 59 61 67 69 69 67 66 67 66 65 62 62 60 55 51 49 50 49 49 51 54 56 56 58 59 58 58 59 60 60 58 56 55 54 53 52 50 48 45 41 38 37 37 38 37 37 37 38 38 38 37 37 36 33 32 32 32 32 32 34 34 33 32 32 31 32 32 33 33 34 35 36 37 38 39 39 40 39 39 38 37 37 37 37 36 35 35 34
77 75 71 66 62 61 59 59 60 60 64 70 69 68 67 68 67 65 63 60 60 59 53 49 47 48 47 48 51 51 52 54 57 57 56 56 57 58 55 53 51 49 48 47 45 43 40 38 36 35 36 37 36 36 36 37 37 38 37 37 36 34 32 32 32 32 31 32 34 34 33 32 32 31 31 31 32 33 34 35 36 37 38 38 38 38 37 36 35 35 35 35 35 34 33 33 33
78 75 71 65 63 63 62 63 64 64 69 72 69 67 67 68 66 64 61 58 60 58 53 49 47 47 46 46 48 49 51 54 56 55 53 52 53 52 51 49 47 44 42 40 38 36 35 34 35 36 37 36 35 36 37 37 37 37 37 36 34 32 32 32 32 32 32 32 34 34 33 33 31 31 30 31 31 32 33 34 35 36 36 35 35 34 33 33 33 33 33 33 33 33 33 32 32
77 74 70 66 66 67 68 69 69 70 73 73 70 68 68 67 65 63 60 59 60 57 53 50 47 46 44 45 47 48 51 53 53 52 50 49 48 48 47 45 42 40 38 36 34 33 34 35 37 37 37 36 37 38 38 38 37 37 36 33 31 31 31 31 32 33 33 33 34 34 33 32 31 30 30 30 31 32 33 33 33 33 32 32 31 30 30 30 31 32 33 33 33 32 32 31 31
74 73 70 68 69 71 72 73 73 74 76 75 72 70 69 68 65 62 59 59 59 56 53 50 47 45 44 46 47 49 52 51 50 48 46 45 45 44 42 40 39 39 37 35 34 35 37 38 38 38 38 39 39 40 39 38 38 37 34 31 30 29 29 31 33 34 34 34 34 34 33 32 31 30 29 29 30 31 31 31 30 29 29 29 28 27 28 29 31 32 33 33 32 31 30 30 30
71 71 69 68 71 74 75 76 77 78 79 77 74 72 70 69 65 61 59 58 57 56 53 50 49 46 45 46 48 51 52 49 47 46 43 42 43 41 39 39 38 38 36 36 37 38 39 40 40 40 41 41 41 40 39 39 38 36 32 29 28 27 29 32 34 34 34 34 35 35 34 32 31 29 28 28 29 29 28 27 26 26 26 26 26 27 28 30 31 32 33 32 31 29 28 29 31
67 66 65 67 72 74 77 79 80 81 80 79 77 75 72 70 67 63 61 58 57 56 54 52 50 47 45 46 50 53 51 48 47 45 43 43 42 40 39 39 38 37 37 38 39 41 41 41 42 42 41 40 40 40 38 35 33 31 29 27 27 28 30 32 34 35 34 35 36 35 34 32 30 29 27 27 26 25 23 23 23 24 24 24 25 27 29 30 32 32 32 31 29 27 28 30 32
65 63 62 66 70 72 76 80 81 81 81 79 79 77 75 72 68 65 62 59 58 57 54 52 51 48 46 48 51 52 50 47 46 46 45 44 43 41 39 38 38 38 38 39 40 41 41 42 42 42 40 38 38 38 34 31 29 28 28 29 29 30 31 33 34 35 35 36 37 36 35 33 30 28 26 24 22 20 19 20 20 22 23 24 26 28 29 31 32 32 32 30 28 27 29 31 33
63 61 62 64 66 69 74 77 79 81 80 80 80 79 77 73 69 67 64 61 59 58 56 54 52 50 48 51 54 52 49 46 46 46 45 45 43 42 40 39 40 40 40 40 41 41 42 42 42 41 39 36 34 32 31 31 31 31 32 32 32 32 33 34 35 35 36 37 37 36 34 32 31 27 23 20 17 17 17 17 19 21 22 24 26 28 30 32 33 33 32 30 28 28 29 31 32
61 61 62 63 64 66 70 73 76 78 79 80 81 79 77 74 71 69 66 64 61 60 58 56 54 52 52 56 56 52 49 47 47 47 46 45 44 43 42 42 42 41 41 42 42 43 43 43 42 42 40 36 32 30 31 33 33 33 34 34 34 35 36 36 35 36 36 36 36 34 31 31 30 24 18 17 15 15 15 16 19 21 23 24 26 28 31 33 33 33 31 29 28 28 29 31 33
57 59 62 63 63 65 67 70 71 74 76 79 80 78 77 75 73 69 67 66 64 62 61 59 58 57 58 59 56 53 50 48 48 48 48 46 45 44 44 44 44 43 43 43 43 44 44 44 43 42 40 37 35 34 34 35 36 35 34 34 36 37 38 37 35 35 35 34 33 32 30 31 28 20 16 15 13 13 14 16 18 21 24 25 26 28 31 34 34 33 32 29 29 29 31 33 34
53 56 60 62 63 64 66 67 68 70 73 75 76 75 76 77 74 68 67 67 66 65 64 63 62 62 62 60 57 55 52 50 49 50 49 47 47 46 46 45 45 45 45 44 44 44 44 44 43 38 34 34 36 36 37 38 38 38 35 36 38 38 38 36 33 32 32 32 32 32 30 29 24 17 17 15 11 11 11 14 17 20 24 26 27 29 31 33 34 33 32 30 29 30 32 34 35
51 53 57 59 61 63 65 65 65 67 69 71 71 72 74 76 72 68 68 69 68 68 67 67 67 67 65 62 59 57 54 52 52 52 51 50 50 49 48 47 46 46 45 44 45 45 45 43 40 35 33 34 36 37 38 38 39 40 37 36 39 40 39 35 32 31 32 33 32 31 29 27 21 16 18 16 11 9 10 12 15 18 21 24 27 29 31 33 33 33 32 31 30 31 33 34 36
52 52 54 55 57 61 62 63 64 64 65 66 67 68 70 71 68 67 70 71 70 70 70 70 71 70 67 64 62 59 57 56 55 55 54 54 53 51 49 48 48 47 46 45 45 45 45 44 42 40 40 40 39 38 38 39 39 39 37 37 39 41 39 34 31 30 32 34 32 29 27 26 22 18 18 17 13 10 9 11 14 17 20 22 24 27 30 32 32 32 31 30 30 31 32 34 35
53 52 52 53 54 56 58 60 63 63 62 64 65 65 65 65 63 66 70 71 71 72 72 73 73 72 70 67 65 63 61 59 58 58 58 57 55 52 50 50 49 47 46 45 45 45 45 44 44 44 44 42 40 38 38 38 37 35 34 36 37 38 37 33 31 30 33 35 32 28 27 26 22 18 17 16 14 11 12 13 15 18 20 21 22 24 29 33 32 30 30 30 29 29 30 31 33
53 52 50 51 51 50 53 57 60 61 61 64 64 60 60 61 61 63 68 70 71 73 74 75 74 73 72 70 68 66 64 63 62 61 60 57 54 51 49 49 48 46 45 45 45 45 45 44 44 45 45 43 41 38 36 35 33 32 33 35 35 35 36 33 31 31 33 35 32 28 26 26 22 18 16 16 14 13 14 15 17 20 21 22 22 23 26 31 31 28 28 28 27 27 28 30 33
53 52 49 49 48 46 49 53 57 59 61 64 62 56 55 59 59 60 65 68 71 73 75 76 75 74 74 72 70 68 67 65 64 61 58 55 53 50 48 47 46 45 45 46 45 44 44 43 44 44 43 43 41 37 35 34 33 34 35 36 34 34 36 34 33 33 34 34 30 27 25 25 24 20 17 16 14 14 16 17 18 21 23 23 23 24 24 29 30 27 26 26 26 27 28 30 33
51 49 46 45 45 44 48 51 52 56 61 63 59 53 53 57 58 59 63 66 68 71 75 76 75 74 75 73 71 69 68 65 62 60 58 55 53 49 46 43 42 42 44 45 43 43 43 42 44 44 41 41 40 36 36 36 36 37 37 35 32 34 36 35 35 35 34 31 28 26 24 24 25 23 20 19 18 18 18 19 21 24 25 24 23 25 25 26 29 27 25 25 26 27 28 30 33
49 46 43 43 42 42 46 47 48 53 58 60 57 52 52 57 58 58 61 63 64 68 73 74 73 74 74 73 71 68 66 63 61 61 60 58 54 50 46 39 36 36 36 40 42 41 41 40 42 43 40 40 39 37 37 36 36 38 39 35 32 35 36 36 36 34 31 27 25 24 23 24 25 25 22 21 22 23 23 23 25 26 24 23 23 25 26 25 27 28 26 25 25 26 28 30 32
46 44 42 43 42 42 44 45 44 48 52 53 53 51 52 57 59 59 60 61 62 65 69 70 69 71 72 71 69 67 64 62 62 62 60 59 55 53 47 39 38 40 39 40 41 40 42 39 40 42 41 42 43 41 38 35 33 37 39 34 32 34 35 35 33 29 26 24 22 22 23 24 25 25 24 22 23 26 28 28 29 27 24 23 24 25 27 26 26 28 28 26 25 26 27 29 32
48 46 44 44 43 42 42 43 43 44 45 47 49 50 51 56 59 59 59 59 61 63 64 65 65 66 68 68 66 64 63 63 63 62 61 60 56 53 48 41 42 48 47 41 35 35 39 37 39 44 43 44 46 44 40 34 31 33 36 32 30 31 33 33 28 22 22 22 21 21 21 23 24 26 26 25 27 30 32 33 33 31 26 25 26 26 28 28 27 28 30 28 27 26 27 29 32
53 51 49 48 47 45 43 44 44 44 44 44 46 48 51 55 59 60 59 58 58 59 60 60 60 62 64 64 63 62 62 62 63 63 63 60 56 52 49 47 47 50 51 44 36 32 31 33 39 43 44 46 47 47 43 37 33 33 34 31 28 30 32 32 26 20 19 19 21 22 21 23 25 27 28 29 31 33 35 37 37 35 29 26 27 28 29 30 29 29 31 31 30 28 29 30 32
57 54 52 51 49 47 46 47 47 46 44 43 45 48 51 55 59 59 58 56 55 54 55 56 57 58 61 61 61 61 61 61 62 63 62 60 57 54 52 53 52 52 55 52 45 37 32 34 38 39 41 43 46 48 46 41 36 34 35 33 29 29 31 29 26 24 21 19 19 21 23 25 27 28 29 31 33 36 38 40 40 36 32 29 28 30 32 33 32 30 31 33 32 31 31 32 33
59 56 54 52 49 47 48 48 48 46 43 42 45 46 48 53 57 58 57 54 51 52 53 53 54 55 57 58 59 60 61 61 63 63 62 61 59 57 57 57 53 52 57 58 55 49 42 39 37 35 33 34 39 44 46 43 39 36 37 37 33 29 27 26 28 28 26 22 19 20 22 25 28 30 31 32 34 38 39 40 40 37 35 33 31 33 35 36 35 33 32 32 33 33 33 33 34
60 56 54 51 49 48 48 48 48 47 44 43 44 43 44 49 53 54 53 51 50 52 52 51 51 52 53 55 56 59 61 61 63 63 62 61 60 59 60 61 56 54 57 59 60 58 54 49 43 37 33 34 36 38 42 41 39 39 39 39 37 31 25 24 30 33 30 26 24 25 26 26 28 31 33 35 36 38 38 38 39 38 38 38 37 37 38 38 37 36 34 33 34 34 34 35 36
60 56 53 51 49 49 48 49 49 48 46 46 45 42 41 45 47 49 49 49 50 51 49 48 47 48 49 51 54 58 59 60 62 63 62 61 61 61 62 64 63 61 60 60 62 61 60 58 51 42 37 36 36 36 39 38 38 40 40 40 41 38 30 25 29 34 34 32 32 34 34 30 28 30 33 35 37 37 37 38 39 39 40 40 40 39 40 40 38 38 36 34 34 35 35 36 37
59 56 52 51 51 50 50 52 52 51 48 48 47 42 39 40 41 44 46 48 49 48 47 45 44 44 46 48 51 55 56 58 61 62 61 60 60 61 64 66 67 67 65 62 64 64 61 61 57 48 42 39 37 37 38 38 38 40 42 42 42 41 38 34 33 34 35 37 39 41 40 34 30 29 32 34 36 37 37 38 39 40 41 40 40 40 41 40 39 38 37 35 35 35 36 36 38
60 56 52 53 53 53 54 55 54 52 49 48 48 42 37 37 38 40 45 47 48 47 45 43 42 43 44 46 50 53 55 58 61 62 62 61 60 61 65 68 69 70 69 66 66 66 62 61 60 53 45 41 39 38 39 41 40 41 42 43 43 43 43 42 41 39 40 43 43 42 41 37 32 30 31 33 34 36 37 39 39 40 40 40 40 41 41 40 39 38 36 35 36 35 36 37 39
61 56 54 56 56 55 56 56 54 52 50 49 49 41 36 38 37 37 43 45 46 45 42 41 41 42 44 46 48 51 54 56 60 62 62 61 61 62 64 67 69 71 72 70 68 68 64 61 61 56 46 40 37 36 39 43 43 42 42 44 45 45 45 45 45 44 43 44 43 43 42 38 34 33 33 32 31 32 34 36 38 39 40 40 40 41 40 40 38 36 35 37 37 35 36 37 40
60 57 58 59 58 57 58 57 54 53 53 51 48 40 36 37 36 36 40 42 42 41 39 40 40 42 45 48 47 49 53 55 59 61 62 62 62 64 65 66 68 71 73 72 70 70 68 63 62 60 52 44 38 36 39 42 44 43 41 43 45 45 45 44 44 44 41 40 39 39 39 37 34 34 34 32 31 30 31 32 34 36 38 39 39 40 39 38 37 36 37 39 38 36 36 38 41
60 60 62 62 61 60 60 58 55 56 55 50 46 41 37 36 36 37 37 36 36 37 38 40 41 43 47 48 47 48 52 55 58 60 62 64 64 65 65 65 67 70 72 74 72 71 70 67 63 61 58 52 44 40 40 42 44 42 40 40 42 43 43 43 42 41 40 38 37 36 36 34 33 33 34 34 32 31 31 31 31 32 34 36 37 37 36 36 36 38 40 40 37 36 37 39 43
64 66 66 64 63 62 62 58 56 57 53 46 44 41 37 36 36 36 33 31 32 37 41 43 43 44 46 46 46 47 51 55 58 60 62 64 66 65 64 64 65 68 71 73 73 70 70 70 67 63 62 59 52 45 43 43 43 42 39 38 39 40 41 41 41 41 40 39 38 37 36 34 32 33 34 35 34 33 33 33 32 31 32 33 34 34 35 37 39 40 41 39 37 37 38 41 45
68 70 68 65 64 63 62 58 57 55 47 42 44 42 37 35 35 35 31 30 34 39 43 43 43 44 45 45 46 47 51 55 57 59 62 65 65 65 63 62 63 66 70 72 72 71 69 69 68 66 64 62 57 51 47 46 45 43 41 39 39 39 40 40 40 40 41 40 39 39 37 34 35 36 36 36 36 36 36 34 33 32 32 33 34 35 36 38 40 40 40 38 37 38 40 44 48
72 71 69 67 65 63 61 58 55 48 40 41 45 43 36 32 33 34 32 32 37 39 40 41 42 43 44 45 46 48 50 53 56 58 61 63 64 64 62 61 62 65 68 69 70 70 69 67 66 65 63 61 58 53 50 48 48 46 44 42 41 40 40 40 39 39 40 40 39 38 37 36 38 39 39 39 38 39 38 37 35 35 35 36 37 38 39 39 40 40 39 38 38 39 42 46 49
73 72 70 66 63 61 57 53 48 40 36 43 48 43 35 31 32 34 33 34 37 39 38 39 40 42 43 44 46 48 49 51 54 56 58 61 63 63 63 62 63 64 65 65 67 68 67 64 64 63 62 60 58 55 52 51 50 49 47 45 44 42 41 40 40 40 40 40 40 39 38 38 40 41 42 41 41 41 41 40 39 39 40 40 40 40 40 40 40 40 39 39 40 41 44 47 49
71 71 67 63 60 56 50 46 43 38 38 47 50 43 34 30 32 34 33 34 37 38 37 36 38 41 43 44 47 48 48 49 51 53 57 60 63 64 63 63 63 63 62 62 62 64 64 61 61 62 61 60 60 58 55 54 52 51 49 47 45 44 42 42 42 42 41 41 41 41 41 41 42 44 44 43 43 42 42 41 41 42 42 42 42 42 42 41 41 41 40 41 42 44 46 48 49
68 68 66 62 58 52 48 46 44 41 43 50 51 42 35 32 32 34 34 34 36 36 35 36 38 41 42 44 46 47 48 48 49 52 56 60 62 64 64 64 63 62 61 59 58 60 60 58 58 60 61 60 60 60 59 57 54 53 52 50 47 45 44 43 43 43 42 41 41 41 42 43 44 45 44 44 43 43 43 42 43 43 44 44 44 43 42 42 42 42 43 44 45 46 48 49 50
68 69 66 61 56 53 52 50 48 46 47 51 50 42 37 35 35 36 35 34 35 33 34 37 40 41 43 45 47 47 48 48 48 52 56 59 62 64 64 64 63 62 60 57 56 56 56 55 55 56 58 58 58 59 60 59 56 54 53 51 49 46 44 43 43 44 43 42 41 41 42 42 44 44 44 44 43 42 42 42 43 44 45 46 46 44 44 43 43 43 44 46 47 48 50 50 51
71 69 63 57 57 58 56 53 50 49 50 51 48 43 40 38 37 37 36 34 34 33 35 39 40 41 42 45 47 47 46 47 49 51 55 59 61 63 64 63 62 61 59 56 55 54 53 52 52 53 55 56 56 57 59 59 57 55 53 52 50 48 45 43 42 43 44 43 42 42 41 41 41 42 43 43 43 43 43 43 44 45 46 46 45 45 45 44 44 45 46 47 49 49 50 50 51
70 65 60 61 64 61 57 54 52 49 49 49 48 44 42 40 38 37 36 35 35 35 37 38 38 39 40 43 45 45 44 45 48 51 55 58 61 63 64 63 62 61 59 56 54 53 51 51 50 51 52 54 55 56 57 58 58 56 54 53 52 50 47 45 43 43 44 44 43 43 42 41 41 41 42 43 44 44 44 45 46 48 47 46 46 46 45 45 46 46 47 49 50 50 50 52 53
68 64 64 66 65 60 56 54 50 48 47 47 46 44 42 40 38 38 36 36 36 36 35 35 35 37 39 41 44 45 44 44 47 51 54 58 60 63 64 63 62 61 59 57 54 53 52 51 50 49 49 50 52 53 54 55 57 56 54 53 53 52 49 47 45 44 45 44 44 44 43 43 43 43 44 45 46 47 48 49 50 51 49 48 47 47 47 47 47 48 49 50 52 53 54 55 55
69 69 69 68 64 60 57 53 49 48 47 46 46 45 43 40 39 38 37 36 38 36 32 32 33 36 39 42 44 44 44 44 46 50 54 57 60 62 64 64 62 61 60 57 55 53 52 51 50 48 47 47 48 47 47 49 52 53 53 52 52 52 51 49 47 46 46 46 46 45 45 46 46 47 47 48 49 50 51 52 52 51 50 49 49 49 48 48 47 49 51 54 56 57 57 56 55
69 68 67 65 63 60 57 54 52 50 49 48 48 47 45 42 40 39 37 37 38 36 31 30 33 36 39 42 43 43 42 43 46 50 53 56 59 61 63 64 63 61 60 58 56 54 53 52 50 47 46 46 46 44 44 46 48 47 49 50 50 50 50 49 48 48 48 48 48 47 47 47 47 48 49 50 51 51 52 53 52 51 50 49 49 48 47 47 49 52 55 58 59 59 57 56 54
69 67 66 65 62 59 56 54 51 50 49 49 49 48 47 44 42 40 38 38 39 37 32 31 34 36 38 41 42 42 42 43 46 49 52 54 58 60 62 64 64 61 59 58 56 54 53 52 50 47 45 43 42 42 44 47 47 46 46 47 48 49 49 49 49 49 49 49 49 48 48 48 49 49 50 50 50 50 50 49 49 48 47 47 47 48 48 50 54 57 59 60 60 58 57 54 50
Wind_Direction
250 250 249 249 248 248 248 248 248 249 249 246 244 245 251 256 257 260 262 262 263 264 265 267 268 267 266 264 267 271 273 273 273 275 278 282 281 278 276 275 275 277 279 281 282 284 290 297 300 301 301 298 295 296 301 305 307 309 312 315 317 320 323 327 329 329 329 328 326 325 326 325 324 324 325 327 328 329 329 329 329 330 330 331 331 330 329 328 326 324 323 321 320 318 317 316 315
251 251 251 250 249 249 248 248 248 249 250 249 247 246 250 255 258 261 261 260 260 262 263 265 266 265 263 262 264 269 271 272 273 275 278 281 280 277 276 275 276 278 279 279 281 285 291 296 299 300 299 294 292 296 302 304 306 309 312 315 317 320 324 326 327 327 327 325 324 324 325 324 324 324 325 327 328 329 329 329 329 330 330 331 330 329 328 327 325 323 322 321 320 318 316 315 315
252 252 252 251 251 250 249 248 248 248 249 250 250 249 251 254 256 258 260 259 259 260 261 262 263 263 262 262 263 265 268 270 272 275 277 278 278 274 271 272 273 274 276 279 282 286 290 294 297 297 294 291 292 297 301 303 306 309 312 315 317 320 322 324 325 325 325 323 323 324 324 323 323 323 325 328 329 329 329 329 329 330 330 330 329 328 327 325 324 322 321 320 319 317 316 315 314
252 252 252 252 252 252 251 249 249 249 250 251 251 251 251 253 254 256 258 259 258 259 259 259 260 260 259 260 262 263 264 267 270 273 273 273 273 271 269 269 270 272 276 280 283 286 289 292 295 295 292 292 294 298 300 303 306 310 313 314 316 318 320 322 323 323 323 321 322 322 323 323 322 323 326 328 328 328 328 328 328 329 328 328 328 327 325 324 322 321 320 319 318 316 315 314 314
251 252 252 252 252 252 252 251 250 250 250 251 250 250 251 251 252 254 256 258 258 259 259 259 259 258 258 258 260 262 262 263 266 268 269 269 268 269 270 271 271 273 277 279 282 284 287 290 292 293 293 294 296 298 300 303 306 310 312 313 314 316 318 321 321 321 320 320 321 322 323 322 322 323 326 327 328 328 327 328 328 328 327 327 326 325 324 323 321 320 319 318 317 315 315 314 313
251 251 252 252 252 252 252 252 251 251 250 250 249 250 251 251 251 253 255 257 258 258 259 258 258 258 258 258 258 260 261 261 263 266 268 267 266 269 271 272 272 274 277 279 281 283 286 288 289 291 293 294 296 298 300 303 306 309 311 311 312 314 317 319 319 319 319 319 320 321 322 322 322 323 325 327 327 327 327 327 327 327 326 325 325 324 323 322 320 319 318 317 316 316 315 314 313
249 250 251 252 252 253 253 253 252 251 250 249 249 249 251 251 251 252 254 257 258 258 258 258 258 258 259 259 258 258 259 260 262 265 266 265 266 270 272 273 274 276 278 279 280 282 285 287 288 289 291 294 296 298 301 303 306 308 309 309 311 314 317 317 317 317 317 318 319 321 322 321 322 323 325 326 327 326 326 326 326 326 325 324 323 323 322 321 319 318 317 317 316 315 315 314 313
248 249 250 251 252 253 253 253 252 251 250 250 248 248 250 251 251 252 253 256 257 258 258 258 258 259 260 260 259 258 258 259 261 263 264 265 266 269 271 273 275 277 279 280 280 282 284 286 288 289 291 293 296 299 301 303 305 307 307 308 311 314 315 316 316 315 315 317 318 320 321 321 321 323 324 325 326 326 326 326 325 324 324 323 322 322 321 320 319 318 317 316 316 315 314 314 313
248 248 249 250 251 252 252 252 252 250 249 249 248 247 249 251 251 252 253 255 256 257 257 257 258 259 260 260 258 257 257 258 259 261 263 265 267 267 269 271 274 277 279 280 281 283 285 287 288 289 291 293 296 299 301 302 304 305 306 307 311 313 313 314 313 313 315 316 318 320 320 320 321 323 324 325 326 325 325 325 324 324 323 322 322 322 320 319 318 317 317 316 316 315 315 314 314
247 248 249 249 250 251 252 252 251 250 248 247 247 247 248 250 251 252 254 255 255 256 257 257 258 259 259 259 258 258 258 258 258 259 261 263 266 267 268 271 273 276 277 279 282 284 286 287 288 290 291 293 297 299 300 301 302 304 305 307 310 311 311 312 311 312 314 315 317 320 319 320 321 322 323 324 325 325 325 324 323 323 322 322 322 321 320 319 318 317 317 316 316 316 316 316 316
246 247 248 249 249 250 250 249 249 249 248 248 248 248 248 249 251 252 253 255 255 255 257 258 258 258 258 258 258 258 258 258 258 258 259 260 264 267 268 270 272 273 276 279 281 284 286 288 289 290 291 294 296 296 298 300 302 304 305 307 308 309 310 310 310 311 313 314 316 319 319 319 321 322 323 324 324 324 324 324 323 323 323 323 322 321 319 318 318 317 317 317 317 318 318 318 317
246 246 247 247 248 248 248 248 248 249 250 250 249 249 248 248 251 252 252 253 254 255 256 258 258 257 257 257 258 259 259 259 259 258 258 259 262 265 266 267 269 271 274 277 279 282 285 287 289 290 290 292 292 294 297 299 301 303 304 306 307 307 308 308 309 310 312 313 315 318 318 319 320 321 322 323 323 324 324 324 323 323 323 322 321 320 319 319 318 318 318 319 320 320 320 320 319
245 245 246 246 246 247 247 248 249 250 250 250 249 248 248 248 249 250 251 252 254 255 255 256 256 257 257 258 258 259 259 259 259 260 260 260 261 262 265 266 268 270 273 275 277 280 282 285 287 288 288 288 290 294 297 299 301 302 303 304 305 305 305 306 308 309 310 312 315 317 318 319 320 320 322 322 323 323 324 323 323 323 322 321 320 320 319 319 320 320 321 321 322 323 322 322 322
245 245 245 244 244 245 246 247 248 249 250 249 248 247 247 247 248 249 250 251 254 254 252 253 255 257 258 259 259 258 258 259 260 261 262 262 262 262 264 266 268 270 273 275 277 279 281 283 285 285 285 286 290 294 296 298 299 300 302 303 303 303 304 305 308 308 309 311 314 317 317 318 318 319 321 322 323 324 323 323 322 322 322 321 320 320 321 321 322 323 324 325 326 326 326 326 326
245 245 244 243 244 245 245 246 247 247 248 248 246 247 247 247 247 248 250 250 252 253 252 253 254 256 257 258 257 256 257 258 259 260 261 262 263 263 265 267 269 271 274 275 277 278 280 281 281 282 283 286 290 293 295 297 298 299 300 301 302 302 302 305 307 307 308 311 314 315 316 317 317 318 320 321 323 323 322 322 322 322 321 321 322 323 324 325 326 328 329 330 331 331 331 331 330
245 244 244 243 244 244 245 245 246 245 246 246 245 246 247 247 247 248 250 251 253 253 253 252 252 253 254 256 256 256 257 257 257 258 259 260 262 264 267 269 271 272 274 275 275 276 277 278 278 280 283 287 290 292 294 295 296 298 299 299 300 300 301 305 306 305 307 310 313 314 314 315 316 317 319 322 323 322 321 322 322 322 322 324 325 327 329 331 333 335 336 335 335 335 335 334 334
245 245 244 243 243 243 244 244 244 243 244 245 245 245 246 246 247 248 249 249 251 252 252 251 249 250 251 253 256 256 256 256 256 257 259 261 263 265 268 269 271 271 271 272 273 274 275 275 276 279 283 286 289 291 292 293 295 296 297 298 299 300 302 304 305 305 306 309 312 312 312 312 314 316 319 322 322 321 321 322 322 323 325 327 330 333 336 339 341 342 340 339 338 337 337 337 337
246 246 245 243 242 242 242 242 242 242 245 245 245 244 245 245 245 246 247 247 249 250 250 250 249 248 249 250 253 254 255 255 256 258 260 262 263 264 265 266 266 267 268 270 271 272 272 274 277 280 283 286 287 289 290 292 292 293 294 296 298 300 302 303 304 305 305 307 309 309 309 310 313 315 318 321 320 320 321 322 324 326 329 332 336 341 344 346 348 347 344 342 341 339 339 340 341
246 245 244 243 242 241 241 241 241 242 244 245 244 244 244 245 244 244 245 246 248 249 249 249 248 247 247 248 250 252 253 255 257 259 260 261 261 261 261 261 261 263 266 267 268 270 271 274 277 280 282 283 286 288 289 291 290 290 291 293 296 299 301 304 305 305 304 304 306 307 307 309 311 314 317 320 319 320 322 323 326 329 334 339 343 347 350 351 351 350 347 345 343 342 342 344 346
246 245 244 243 242 241 241 241 241 241 242 244 243 244 244 245 245 244 244 245 247 249 248 248 247 246 245 247 249 250 251 253 256 257 258 257 257 257 257 258 259 261 262 263 266 268 271 274 276 278 280 283 286 288 290 291 290 289 288 290 294 298 299 303 305 305 303 303 304 305 305 307 309 312 316 319 319 320 322 325 330 335 342 346 348 351 354 354 353 351 349 347 345 345 346 348 348
246 245 244 243 242 241 242 241 241 241 242 242 243 243 243 245 244 243 243 243 245 246 246 246 245 244 244 245 247 248 249 250 252 253 253 253 253 254 255 257 258 258 260 262 265 268 271 273 275 278 280 284 287 289 290 290 291 290 288 287 291 297 299 302 306 305 303 303 303 304 305 307 309 311 315 319 319 320 325 330 337 344 349 351 352 355 356 355 354 352 351 349 347 347 348 349 349
246 245 243 242 242 242 242 242 242 243 242 243 243 243 243 243 243 244 243 242 243 244 244 244 244 242 241 243 244 246 246 246 248 249 249 250 253 254 255 256 258 259 261 263 266 268 271 273 276 278 281 285 287 287 286 286 290 291 290 287 288 295 298 302 305 305 305 304 304 304 306 308 308 311 317 319 318 323 332 338 347 353 355 356 357 358 357 356 355 354 353 352 350 349 348 348 349
247 245 244 243 242 242 243 243 243 244 243 243 244 243 243 242 242 243 243 242 243 243 243 243 243 241 239 239 241 242 243 243 245 247 248 250 252 253 255 256 257 259 261 264 266 268 271 273 276 277 280 284 285 285 281 283 287 288 289 286 287 292 295 301 304 306 306 306 306 306 309 310 307 313 319 315 317 330 340 348 358 2 2 1 1 359 358 357 356 356 355 353 351 349 348 348 348
247 246 245 244 243 243 243 243 243 244 244 244 244 244 244 243 242 242 242 242 242 243 242 241 241 240 238 238 239 240 241 242 244 246 247 248 250 252 255 256 257 259 261 264 266 269 272 274 276 278 280 279 278 279 277 281 285 287 287 283 286 288 291 299 304 307 308 307 309 308 310 309 308 315 314 306 319 336 345 356 5 7 6 5 3 1 359 357 357 358 357 354 351 349 348 347 348
247 247 246 244 243 243 244 244 244 244 244 244 244 245 245 244 243 242 242 242 242 242 242 241 240 239 238 238 238 238 239 241 243 245 247 248 250 252 253 255 257 259 261 264 267 270 272 275 278 281 279 273 270 274 278 280 283 286 287 283 284 284 288 298 304 309 310 309 309 307 308 307 307 311 300 297 318 336 347 359 6 8 8 7 5 2 358 356 356 358 357 354 351 349 347 347 349
247 247 246 245 244 244 244 245 245 245 245 245 245 245 245 245 244 242 242 243 242 242 242 242 241 240 239 238 238 237 237 239 243 246 247 248 249 250 252 254 257 260 262 265 267 270 272 275 279 280 278 272 270 274 278 278 279 284 286 284 284 283 288 298 304 309 310 308 306 305 304 302 302 299 287 290 307 324 339 353 2 7 7 7 6 2 358 355 354 356 355 353 350 348 346 348 349
246 246 246 245 244 245 245 246 246 246 246 246 246 245 245 246 245 244 243 242 242 242 241 241 241 240 239 238 238 237 236 237 240 244 245 246 248 249 251 254 257 260 262 265 267 269 271 273 274 273 274 277 274 272 274 274 275 279 282 283 283 283 290 297 302 307 309 307 304 303 301 297 293 285 281 282 289 307 324 339 350 355 359 4 5 2 357 354 354 354 352 351 349 347 347 348 350
244 244 246 246 245 245 246 246 247 246 247 247 246 245 245 246 245 244 243 242 241 241 241 240 241 240 240 238 238 238 237 236 238 242 243 244 246 248 251 254 257 259 262 265 266 268 269 269 269 267 272 278 276 274 276 276 277 279 281 282 282 285 290 294 299 305 309 309 305 303 300 293 285 279 280 274 274 292 304 320 332 335 340 349 357 359 356 353 353 352 350 349 347 346 347 349 352
244 243 245 247 246 246 247 246 247 247 247 247 246 245 245 246 245 243 243 241 240 241 240 240 240 240 239 238 237 237 237 237 238 240 242 243 245 248 252 255 258 260 263 265 266 267 267 267 267 267 271 276 276 277 281 282 284 284 285 285 284 289 291 292 298 303 310 310 306 304 299 290 281 275 278 271 268 281 290 302 311 315 321 330 341 350 353 352 351 350 348 346 345 345 346 349 353
245 243 243 246 247 247 249 247 247 247 247 247 246 245 246 245 243 242 243 241 240 240 239 239 239 239 239 238 236 236 236 236 237 238 241 244 247 250 253 256 259 262 264 265 264 265 265 266 266 266 268 270 272 275 278 282 284 283 284 285 289 295 293 293 298 303 310 310 307 306 298 289 279 270 270 268 265 273 283 294 301 307 310 317 327 337 346 349 348 348 346 344 343 343 345 348 351
246 244 243 246 248 248 250 249 247 247 246 246 245 244 246 245 243 242 242 241 239 239 239 239 238 238 239 238 236 235 236 236 237 239 241 245 247 249 252 257 259 261 262 262 262 263 263 263 263 264 265 265 267 270 270 272 276 278 281 283 289 296 293 293 299 305 309 308 307 305 297 289 281 268 260 258 261 271 281 290 298 306 308 310 319 326 335 343 345 346 345 343 340 340 343 346 348
248 247 246 247 248 249 251 251 249 248 246 246 245 243 244 245 242 240 240 240 240 239 239 239 238 238 238 238 237 236 236 236 237 239 239 241 243 244 245 250 256 259 261 263 262 261 262 263 264 263 263 266 268 270 268 268 270 273 278 280 285 291 289 293 302 306 305 304 305 303 294 285 277 268 256 249 256 269 278 283 292 304 308 308 315 321 327 337 341 343 344 342 339 339 340 342 345
249 250 248 248 248 248 251 252 251 249 247 246 244 241 241 243 241 239 239 239 239 239 240 239 238 238 239 239 238 238 237 237 237 238 237 237 238 239 236 234 242 249 256 260 259 260 262 264 267 266 264 267 271 272 271 272 269 267 269 274 281 283 283 293 302 303 300 301 303 299 291 281 274 271 263 253 255 265 271 278 290 301 306 309 316 321 325 332 338 341 343 341 338 337 338 340 343
251 251 249 247 246 247 250 251 251 251 249 246 243 239 238 241 241 238 238 238 237 239 241 241 240 240 240 240 240 239 239 238 237 237 237 236 235 236 233 228 230 231 237 247 253 262 265 262 263 263 264 266 268 269 270 273 272 264 262 268 276 277 281 292 299 299 298 302 303 297 291 284 278 275 271 262 260 263 268 276 288 297 303 310 317 322 326 328 333 340 341 338 336 335 335 337 340
249 247 244 241 240 241 245 248 247 249 249 245 241 238 236 240 241 239 237 237 237 239 241 242 242 242 242 242 241 240 239 238 237 236 236 235 232 232 231 228 227 227 231 233 235 251 261 261 260 260 263 265 264 265 266 267 270 264 258 263 271 272 279 289 294 298 300 301 301 297 292 286 282 277 272 268 267 268 272 279 287 292 299 312 317 319 325 326 327 336 341 337 334 332 332 334 337
243 241 239 236 234 234 237 241 243 245 247 245 241 237 235 238 241 240 238 237 238 240 241 243 243 242 242 241 240 238 238 237 237 236 235 234 232 230 227 225 226 229 233 231 224 231 247 253 255 259 262 263 262 262 261 259 262 262 257 260 265 269 278 284 286 291 298 299 297 296 291 286 285 280 274 270 270 273 277 282 287 288 294 310 318 316 321 325 322 327 337 337 332 329 329 331 334
239 238 238 237 236 234 236 239 242 244 246 246 243 239 237 238 241 242 241 239 239 240 241 242 242 242 242 241 239 237 235 235 235 235 234 232 230 228 226 226 228 229 233 233 228 225 232 238 245 255 260 260 257 257 257 254 255 258 256 255 258 267 274 273 274 280 289 296 295 293 289 286 287 284 279 274 273 277 281 284 286 288 291 302 315 316 315 319 319 319 328 334 331 326 326 328 331
237 236 237 238 237 236 236 239 242 244 245 247 245 242 239 240 242 243 243 241 240 240 239 238 239 240 240 240 239 237 235 233 233 233 232 230 228 226 225 226 228 229 230 232 230 228 229 229 234 246 254 259 257 252 251 251 250 254 255 254 255 266 271 268 269 273 280 290 296 296 291 288 287 285 282 281 281 283 285 285 286 289 293 297 304 311 313 314 315 315 319 327 329 325 323 324 327
236 235 236 237 237 235 236 238 242 244 245 246 246 243 241 241 243 244 245 244 241 240 239 237 237 237 238 239 237 236 233 231 231 231 230 228 226 224 223 224 224 228 230 230 230 230 231 232 236 242 249 260 261 252 250 249 245 248 252 255 257 262 266 272 273 270 273 284 293 298 297 294 291 287 284 284 286 288 288 287 287 290 295 297 299 304 309 309 310 311 313 318 325 324 321 321 323
236 236 236 237 237 235 235 236 239 241 242 244 245 243 242 243 244 245 246 244 242 241 241 239 237 235 236 237 237 236 233 231 231 231 230 228 225 222 222 222 221 225 229 229 230 231 232 234 238 244 250 259 261 255 253 250 243 243 247 252 256 257 256 266 271 268 271 281 289 294 294 294 294 291 288 285 286 289 289 288 288 292 296 299 299 300 304 305 304 307 307 311 320 322 319 318 320
236 236 236 235 235 234 232 232 234 237 239 242 244 242 243 245 245 245 244 243 241 241 240 239 237 234 233 234 235 235 233 231 230 230 229 227 225 222 221 221 220 223 226 228 230 231 231 233 237 244 250 255 259 258 255 253 246 242 244 249 253 255 255 259 265 266 271 278 286 291 290 290 291 290 289 288 287 286 287 288 289 292 295 299 300 300 300 300 301 303 303 306 314 318 317 316 318
233 233 233 233 233 232 231 231 232 236 238 241 244 242 242 246 245 243 242 241 240 239 238 237 236 233 231 230 232 232 231 230 228 227 226 225 223 222 221 221 221 221 224 225 227 229 230 232 236 242 246 252 260 260 254 253 249 243 243 247 251 254 257 260 263 266 271 276 281 286 286 286 287 288 290 291 289 285 285 287 290 293 295 297 299 298 297 297 300 301 301 305 311 314 314 314 317
229 229 229 229 230 230 231 232 232 235 237 239 242 242 241 245 245 244 243 242 240 239 237 236 235 233 230 229 229 230 230 229 227 226 224 223 222 221 221 221 221 221 222 224 225 227 229 230 234 238 242 249 258 260 255 253 251 247 245 247 251 254 257 262 265 267 273 277 280 282 283 283 283 287 290 291 291 289 287 288 290 292 293 295 296 296 294 295 299 300 302 306 309 311 312 312 315
227 227 228 228 228 229 230 231 230 232 233 235 239 240 240 244 247 246 246 244 242 241 238 236 233 232 231 229 227 227 228 228 226 225 223 222 221 221 221 220 221 221 222 224 225 225 227 229 232 236 240 245 254 258 256 253 251 251 249 247 250 254 256 260 264 268 274 278 279 279 279 278 279 282 286 288 290 292 293 293 293 293 293 294 295 296 295 296 298 300 303 307 308 309 310 311 313
225 226 227 227 227 227 228 229 228 229 231 234 238 240 240 244 248 248 249 247 244 240 236 233 230 230 230 229 225 224 226 227 226 224 222 221 220 220 221 220 220 221 222 224 226 226 226 228 231 235 238 242 250 256 257 254 250 249 250 249 250 253 255 258 262 266 272 276 276 275 273 274 277 279 281 284 287 292 297 298 298 297 296 297 297 296 296 296 297 300 303 306 307 308 308 309 311
223 224 225 225 226 227 228 229 228 230 232 234 239 240 240 243 248 250 250 251 246 237 232 229 227 228 230 229 226 223 225 227 226 224 221 220 219 220 220 220 220 221 222 224 226 227 227 228 229 233 236 239 245 252 255 255 250 246 247 248 250 254 257 260 263 267 270 271 271 271 270 272 277 279 279 281 285 291 296 300 301 301 299 299 298 297 296 296 297 300 302 304 305 306 305 306 308
222 224 225 225 226 227 228 229 229 231 232 234 239 240 240 242 248 251 249 248 244 236 230 228 226 227 228 230 227 224 224 226 226 224 222 220 219 219 220 220 220 222 224 225 226 227 227 228 229 231 235 238 243 248 252 253 249 245 246 248 252 256 259 261 264 266 267 266 266 267 270 274 278 280 281 282 285 289 294 298 300 300 299 298 299 298 297 297 299 300 301 303 304 303 304 305 307
221 224 225 226 226 228 229 230 231 233 232 235 240 241 239 240 247 250 246 244 245 239 232 229 227 226 226 228 227 225 224 225 227 226 223 221 218 218 219 219 221 223 224 226 228 228 228 228 229 230 234 238 241 245 248 249 249 246 247 250 253 256 259 260 262 263 262 262 262 265 270 275 279 282 284 285 287 289 293 297 298 297 297 298 299 298 299 299 299 300 301 302 303 303 303 304 306
221 224 225 227 228 230 232 233 235 235 232 236 240 240 237 237 243 247 245 244 246 243 235 228 227 226 225 225 226 226 225 225 227 227 225 223 219 218 218 219 221 224 225 227 229 230 229 229 229 229 233 237 239 242 245 246 247 248 249 251 253 255 257 258 259 259 259 259 261 266 270 274 278 282 286 287 288 289 291 294 295 296 297 297 298 299 300 299 298 299 301 302 303 303 303 304 305
225 227 227 229 231 233 235 236 236 232 229 234 238 237 234 235 240 245 245 245 247 245 239 229 226 226 225 225 225 225 225 226 227 228 226 224 220 218 218 219 222 224 225 227 229 231 231 230 229 229 231 235 237 240 242 244 246 248 250 251 253 254 255 257 258 258 258 259 261 265 268 272 276 280 284 286 287 288 290 292 293 294 296 296 297 298 299 298 298 299 301 302 304 303 303 303 304
225 227 228 229 231 233 234 233 231 228 226 232 236 235 233 232 236 241 244 245 248 249 244 233 226 225 225 226 226 225 225 226 227 227 227 225 221 218 217 219 222 223 225 227 229 231 232 232 231 231 231 233 236 238 240 243 245 248 250 251 252 254 256 258 257 256 256 259 262 265 267 269 272 276 280 283 285 287 289 290 292 293 294 295 297 298 298 297 298 299 300 302 303 302 301 301 302
222 224 226 228 231 232 231 229 226 222 223 229 233 232 230 227 230 236 241 245 248 249 245 235 226 223 223 224 225 224 224 225 226 227 226 225 222 219 218 219 222 224 224 226 228 230 231 231 231 232 232 232 234 236 238 241 244 247 248 249 252 254 256 256 255 255 256 260 263 266 269 270 271 274 277 280 283 286 288 290 292 293 294 295 296 297 297 297 298 299 299 301 301 300 299 299 300
223 225 225 226 227 228 228 227 225 221 221 225 229 229 227 226 227 233 239 244 247 246 244 238 228 223 224 224 225 224 223 225 226 226 226 225 223 220 218 219 222 224 224 225 227 228 229 230 229 230 232 232 233 235 237 240 242 245 247 248 250 253 254 255 256 256 258 261 265 268 271 272 273 275 277 280 282 285 288 291 294 295 295 295 296 296 296 297 298 298 298 299 299 298 297 298 299
222 225 225 225 225 225 225 225 224 222 222 225 227 228 228 227 228 232 237 242 245 244 244 242 232 224 225 226 225 225 224 226 227 227 226 225 224 222 219 219 222 225 225 225 227 227 228 228 226 227 231 232 233 234 236 238 241 244 246 247 249 251 252 254 256 259 261 263 266 268 271 273 275 278 280 281 284 286 289 292 294 296 296 296 295 296 296 297 297 297 298 297 296 295 296 298 300
219 220 221 223 225 226 227 228 225 222 222 224 227 229 229 228 228 232 237 241 244 245 247 248 236 224 223 225 224 224 224 226 227 228 226 225 224 222 219 218 221 225 226 226 227 227 227 226 224 225 230 231 233 235 237 240 241 243 245 246 247 249 251 254 256 259 261 263 265 267 269 272 275 278 280 282 284 287 290 293 294 295 295 295 295 295 296 297 297 296 294 293 292 293 295 298 300
218 218 219 221 222 223 224 225 224 221 221 222 225 228 229 227 227 230 234 239 244 246 248 248 239 226 221 222 222 224 226 227 227 228 227 226 224 222 220 219 220 224 226 227 226 227 227 225 222 223 228 230 232 234 236 240 243 243 244 245 247 248 251 254 256 258 260 262 264 266 269 272 275 278 280 282 285 288 291 292 292 293 293 293 294 296 296 296 293 290 288 289 290 292 295 298 301
219 221 222 223 224 224 223 223 221 218 217 218 220 223 225 224 225 228 231 235 242 245 244 241 237 228 223 222 221 223 227 228 228 228 228 227 225 223 221 219 220 223 226 227 226 226 227 224 221 222 226 229 232 232 231 234 238 241 244 246 247 249 251 253 254 256 258 261 263 267 270 274 276 279 281 283 286 289 290 291 291 292 292 293 293 293 292 289 285 284 285 288 290 292 295 298 301
218 220 222 223 224 225 225 225 222 218 216 217 218 220 221 222 222 224 227 231 238 243 241 236 234 229 224 223 223 223 226 227 228 229 229 229 226 223 222 221 220 221 225 227 226 226 227 225 220 220 225 229 233 235 235 235 238 240 243 247 248 249 250 252 253 255 257 260 263 266 270 273 276 278 280 283 286 288 288 288 288 289 289 289 287 285 283 282 282 284 286 288 290 293 295 299 301